Location: Molino di Ancona
(43.6167°N, 13.3667°E)
Time: 18:46:49
(UTC+00:00)

Cosmos 2292 Rocket - Pass Details

Date: 15 December 2019
Orbit: 379 x 1457 km, 83.0° (Epoch: 29 January)

Event Time Altitude Azimuth Distance (km) Brightness Sun altitude
Rises 04:59:15 0° 353° (N) 3,945 7.4 -16.2°
Reaches altitude 10° 05:02:14 10° 356° (N) 2,811 6.7 -15.7°
Maximum altitude 05:08:34 69° 79° (E) 867 4.4 -14.6°
Drops below altitude 10° 05:13:12 10° 163° (SSE) 2,080 6.8 -13.8°
Sets 05:15:08 0° 166° (SSE) 2,853 7.5 -13.4°
